CPA617 VHHH-VTBS

Flight info

Callsign CPA617
Flight time 2h 18m
Altitude 38100
Route PECAN V10 SIKOU/K0913S1160 A202 ASSAD/K0911F381 A202 VILAO/N0493F381 A202 RAMEI W42 PAKRI Y13 RUKSA EASTE1C
Aircraft A359/H-SDE2E3GHIJ3J4J5LM1ORWXY/LB1D1

Departure

Time 2026-05-07 16:47
Airport Hong Kong International Airport (VHHH)

Arrival

Time 2026-05-07 19:05
Airport Suvarnabhumi Airport (VTBS)
Time Latitude Longitude Altitude Speed Heading
2026-05-07 16:26 22.31452 113.93003 40 ft 0 kts 160°
2026-05-07 16:30 22.31460 113.93000 40 ft 2 kts 160°
2026-05-07 16:30 22.31472 113.92996 40 ft 2 kts 160°
2026-05-07 16:31 22.31484 113.92990 40 ft 2 kts 160°
2026-05-07 16:31 22.31494 113.92986 40 ft 2 kts 160°
2026-05-07 16:31 22.31505 113.92982 40 ft 2 kts 172°
2026-05-07 16:31 22.31517 113.92982 40 ft 2 kts 188°
2026-05-07 16:32 22.31523 113.92983 40 ft 2 kts 194°
2026-05-07 16:32 22.31533 113.92986 40 ft 2 kts 205°
2026-05-07 16:32 22.31543 113.92992 40 ft 2 kts 218°
2026-05-07 16:32 22.31552 113.93001 40 ft 2 kts 231°
2026-05-07 16:33 22.31562 113.93021 40 ft 1 kts 252°
2026-05-07 16:33 22.31562 113.93023 40 ft 0 kts 252°
2026-05-07 16:35 22.31559 113.93012 40 ft 4 kts 251°
2026-05-07 16:35 22.31541 113.92956 40 ft 11 kts 250°
2026-05-07 16:35 22.31509 113.92857 40 ft 14 kts 251°
2026-05-07 16:36 22.31493 113.92758 40 ft 12 kts 288°
2026-05-07 16:36 22.31534 113.92667 40 ft 15 kts 296°
2026-05-07 16:36 22.31587 113.92549 40 ft 19 kts 296°
2026-05-07 16:36 22.31630 113.92456 40 ft 21 kts 296°
2026-05-07 16:37 22.31624 113.92304 40 ft 16 kts 251°
2026-05-07 16:37 22.31586 113.92186 40 ft 17 kts 251°
2026-05-07 16:37 22.31548 113.92082 40 ft 7 kts 226°
2026-05-07 16:37 22.31497 113.92072 40 ft 8 kts 171°
2026-05-07 16:38 22.31437 113.92091 40 ft 9 kts 160°
2026-05-07 16:38 22.31375 113.92114 40 ft 10 kts 160°
2026-05-07 16:38 22.31314 113.92136 40 ft 7 kts 161°
2026-05-07 16:38 22.31257 113.92157 40 ft 9 kts 161°
2026-05-07 16:39 22.31187 113.92183 40 ft 11 kts 161°
2026-05-07 16:39 22.31105 113.92214 40 ft 13 kts 161°
2026-05-07 16:39 22.31010 113.92249 40 ft 14 kts 161°
2026-05-07 16:39 22.30910 113.92287 40 ft 15 kts 161°
2026-05-07 16:40 22.30804 113.92326 40 ft 16 kts 161°
2026-05-07 16:40 22.30717 113.92341 40 ft 5 kts 217°
2026-05-07 16:40 22.30710 113.92322 40 ft 7 kts 252°
2026-05-07 16:40 22.30683 113.92228 40 ft 18 kts 252°
2026-05-07 16:41 22.30638 113.92085 40 ft 21 kts 251°
2026-05-07 16:41 22.30592 113.91943 40 ft 17 kts 250°
2026-05-07 16:41 22.30552 113.91820 40 ft 18 kts 251°
2026-05-07 16:41 22.30509 113.91685 40 ft 18 kts 251°
2026-05-07 16:42 22.30468 113.91557 40 ft 18 kts 251°
2026-05-07 16:42 22.30425 113.91424 40 ft 19 kts 251°
2026-05-07 16:42 22.30380 113.91284 40 ft 17 kts 251°
2026-05-07 16:42 22.30338 113.91155 40 ft 18 kts 250°
2026-05-07 16:43 22.30295 113.91020 40 ft 19 kts 251°
2026-05-07 16:43 22.30252 113.90888 40 ft 18 kts 251°
2026-05-07 16:43 22.30210 113.90757 40 ft 18 kts 251°
2026-05-07 16:43 22.30166 113.90621 40 ft 19 kts 251°
2026-05-07 16:44 22.30121 113.90481 40 ft 19 kts 251°
2026-05-07 16:44 22.30074 113.90336 40 ft 20 kts 251°
2026-05-07 16:44 22.30026 113.90189 40 ft 21 kts 251°
2026-05-07 16:44 22.29977 113.90036 40 ft 21 kts 251°
2026-05-07 16:45 22.29927 113.89880 40 ft 22 kts 251°
2026-05-07 16:45 22.29871 113.89741 40 ft 11 kts 215°
2026-05-07 16:45 22.29803 113.89739 40 ft 7 kts 162°
2026-05-07 16:45 22.29742 113.89761 40 ft 9 kts 161°
2026-05-07 16:46 22.29675 113.89789 40 ft 11 kts 157°
2026-05-07 16:46 22.29633 113.89838 40 ft 11 kts 88°
2026-05-07 16:46 22.29681 113.89995 40 ft 49 kts 71°
2026-05-07 16:46 22.29870 113.90580 41 ft 113 kts 70°
2026-05-07 16:47 22.30198 113.91573 90 ft 160 kts 72°
2026-05-07 16:47 22.30563 113.92712 677 ft 160 kts 72°
2026-05-07 16:47 22.30936 113.93841 1263 ft 162 kts 72°
2026-05-07 16:47 22.31306 113.94970 1829 ft 163 kts 72°
2026-05-07 16:48 22.31684 113.96133 2376 ft 165 kts 72°
2026-05-07 16:48 22.32057 113.97287 2907 ft 166 kts 72°
2026-05-07 16:48 22.32443 113.98485 3380 ft 173 kts 72°
2026-05-07 16:48 22.32851 113.99754 3739 ft 187 kts 72°
2026-05-07 16:49 22.33297 114.01142 4109 ft 202 kts 72°
2026-05-07 16:49 22.33760 114.02628 4464 ft 219 kts 77°
2026-05-07 16:49 22.33851 114.04318 4922 ft 231 kts 99°
2026-05-07 16:49 22.33359 114.05949 5623 ft 232 kts 120°
2026-05-07 16:50 22.32364 114.07307 6303 ft 235 kts 140°
2026-05-07 16:50 22.30984 114.08274 6845 ft 243 kts 158°
2026-05-07 16:50 22.29324 114.08759 7297 ft 255 kts 176°
2026-05-07 16:50 22.27515 114.08794 7792 ft 266 kts 182°
2026-05-07 16:51 22.25590 114.08748 8202 ft 282 kts 182°
2026-05-07 16:51 22.23594 114.08700 8758 ft 291 kts 182°
2026-05-07 16:51 22.21551 114.08665 9429 ft 295 kts 182°
2026-05-07 16:51 22.19516 114.08641 10090 ft 298 kts 182°
2026-05-07 16:52 22.17415 114.08620 10570 ft 308 kts 182°
2026-05-07 16:52 22.15212 114.08602 10887 ft 324 kts 181°
2026-05-07 16:52 22.12879 114.08607 11184 ft 340 kts 181°
2026-05-07 16:52 22.10464 114.08622 11467 ft 355 kts 181°
2026-05-07 16:53 22.07915 114.08637 11749 ft 370 kts 181°
2026-05-07 16:53 22.05302 114.08649 12026 ft 384 kts 181°
2026-05-07 16:53 22.02589 114.08663 12514 ft 390 kts 181°
2026-05-07 16:53 21.99846 114.08678 13089 ft 393 kts 181°
2026-05-07 16:54 21.97125 114.08691 13638 ft 397 kts 181°
2026-05-07 16:54 21.94336 114.08704 14172 ft 401 kts 181°
2026-05-07 16:54 21.91548 114.08717 14685 ft 404 kts 181°
2026-05-07 16:54 21.88713 114.08730 15194 ft 408 kts 181°
2026-05-07 16:55 21.85850 114.08744 15684 ft 411 kts 181°
2026-05-07 16:55 21.82978 114.08759 16161 ft 415 kts 181°
2026-05-07 16:55 21.80067 114.08772 16642 ft 418 kts 182°
2026-05-07 16:55 21.77138 114.08785 17110 ft 421 kts 182°
2026-05-07 16:56 21.74199 114.08798 17563 ft 424 kts 182°
2026-05-07 16:56 21.71232 114.08810 18009 ft 428 kts 182°
2026-05-07 16:56 21.65253 114.08636 18903 ft 432 kts 188°
2026-05-07 16:57 21.62262 114.08200 19343 ft 433 kts 192°
2026-05-07 16:57 21.59343 114.07528 19764 ft 435 kts 195°
2026-05-07 16:57 21.56360 114.06754 20168 ft 438 kts 196°
2026-05-07 16:57 21.53399 114.05973 20559 ft 441 kts 196°
2026-05-07 16:58 21.50390 114.05184 20950 ft 445 kts 195°
2026-05-07 16:58 21.47365 114.04367 21339 ft 447 kts 198°
2026-05-07 16:58 21.44449 114.03279 21728 ft 447 kts 205°
2026-05-07 16:58 21.41608 114.01822 22129 ft 448 kts 211°
2026-05-07 16:59 21.38954 114.00079 22528 ft 448 kts 215°
2026-05-07 16:59 21.36354 113.98243 22917 ft 450 kts 216°
2026-05-07 16:59 21.33729 113.96365 23289 ft 453 kts 216°
2026-05-07 16:59 21.31107 113.94491 23642 ft 455 kts 216°
2026-05-07 17:00 21.28451 113.92601 23999 ft 458 kts 216°
2026-05-07 17:00 21.25796 113.90718 24342 ft 460 kts 216°
2026-05-07 17:00 21.23097 113.88808 24671 ft 463 kts 216°
2026-05-07 17:00 21.20427 113.86923 24997 ft 465 kts 216°
2026-05-07 17:01 21.17704 113.84999 25304 ft 468 kts 216°
2026-05-07 17:01 21.14953 113.83059 25592 ft 471 kts 216°
2026-05-07 17:01 21.12229 113.81093 25878 ft 472 kts 220°
2026-05-07 17:01 21.09859 113.78731 26166 ft 470 kts 232°
2026-05-07 17:02 21.07978 113.75887 26485 ft 468 kts 243°
2026-05-07 17:02 21.06659 113.72711 26772 ft 467 kts 252°
2026-05-07 17:02 21.05589 113.69437 27070 ft 469 kts 253°
2026-05-07 17:02 21.04539 113.66126 27307 ft 471 kts 253°
2026-05-07 17:03 21.03479 113.62780 27570 ft 473 kts 253°
2026-05-07 17:03 21.02411 113.59432 27831 ft 475 kts 253°
2026-05-07 17:03 21.01346 113.56119 28076 ft 477 kts 253°
2026-05-07 17:03 21.00257 113.52743 28312 ft 479 kts 252°
2026-05-07 17:04 20.99166 113.49371 28529 ft 481 kts 252°
2026-05-07 17:04 20.98066 113.45985 28752 ft 483 kts 252°
2026-05-07 17:04 20.96961 113.42588 28982 ft 485 kts 252°
2026-05-07 17:04 20.95850 113.39176 29218 ft 487 kts 253°
2026-05-07 17:05 20.94734 113.35751 29455 ft 488 kts 253°
2026-05-07 17:05 20.93616 113.32317 29706 ft 489 kts 252°
2026-05-07 17:05 20.92511 113.28912 30037 ft 488 kts 252°
2026-05-07 17:05 20.91392 113.25473 30402 ft 487 kts 252°
2026-05-07 17:06 20.90295 113.22104 30749 ft 486 kts 252°
2026-05-07 17:06 20.89174 113.18687 31092 ft 485 kts 252°
2026-05-07 17:06 20.88046 113.15289 31422 ft 484 kts 252°
2026-05-07 17:06 20.86929 113.11919 31727 ft 484 kts 252°
2026-05-07 17:07 20.85810 113.08536 32037 ft 483 kts 252°
2026-05-07 17:07 20.84689 113.05138 32358 ft 482 kts 253°
2026-05-07 17:07 20.83576 113.01758 32687 ft 481 kts 253°
2026-05-07 17:07 20.82477 112.98418 32998 ft 481 kts 253°
2026-05-07 17:08 20.81365 112.95037 33317 ft 481 kts 253°
2026-05-07 17:08 20.80253 112.91657 33657 ft 480 kts 253°
2026-05-07 17:08 20.79154 112.88322 34031 ft 478 kts 253°
2026-05-07 17:08 20.78048 112.84963 34402 ft 477 kts 253°
2026-05-07 17:09 20.76949 112.81631 34747 ft 475 kts 253°
2026-05-07 17:09 20.75858 112.78323 35080 ft 474 kts 253°
2026-05-07 17:09 20.74773 112.75041 35413 ft 472 kts 253°
2026-05-07 17:09 20.73683 112.71737 35718 ft 471 kts 253°
2026-05-07 17:10 20.72591 112.68436 35994 ft 470 kts 253°
2026-05-07 17:10 20.71505 112.65151 36244 ft 469 kts 253°
2026-05-07 17:10 20.70431 112.61905 36449 ft 469 kts 253°
2026-05-07 17:10 20.69334 112.58590 36632 ft 470 kts 253°
2026-05-07 17:11 20.68248 112.55315 36772 ft 471 kts 253°
2026-05-07 17:11 20.67154 112.52014 36916 ft 471 kts 253°
2026-05-07 17:11 20.66062 112.48721 37068 ft 472 kts 253°
2026-05-07 17:11 20.64969 112.45431 37221 ft 472 kts 253°
2026-05-07 17:12 20.63872 112.42125 37363 ft 473 kts 253°
2026-05-07 17:12 20.62774 112.38820 37504 ft 473 kts 253°
2026-05-07 17:12 20.61677 112.35516 37622 ft 474 kts 253°
2026-05-07 17:12 20.60569 112.32179 37742 ft 475 kts 253°
2026-05-07 17:13 20.59473 112.28879 37866 ft 475 kts 253°
2026-05-07 17:13 20.58402 112.25535 37982 ft 474 kts 256°
2026-05-07 17:13 20.57286 112.18685 37981 ft 470 kts 269°
2026-05-07 17:14 20.57681 112.11762 37989 ft 467 kts 282°
2026-05-07 17:14 20.59522 112.05180 37982 ft 465 kts 294°
2026-05-07 17:15 20.62305 111.98899 37978 ft 466 kts 296°
2026-05-07 17:15 20.65130 111.92695 37970 ft 469 kts 296°
2026-05-07 17:16 20.67986 111.86389 37971 ft 472 kts 296°
2026-05-07 17:16 20.70819 111.80107 37972 ft 473 kts 296°
2026-05-07 17:17 20.73677 111.73757 37970 ft 474 kts 296°
2026-05-07 17:17 20.76528 111.67416 37970 ft 472 kts 296°
2026-05-07 17:18 20.79348 111.61119 37966 ft 469 kts 294°
2026-05-07 17:18 20.81340 111.54530 37979 ft 468 kts 282°
2026-05-07 17:19 20.81910 111.47598 37974 ft 471 kts 270°
2026-05-07 17:19 20.81027 111.40690 37977 ft 475 kts 258°
2026-05-07 17:20 20.78943 111.33973 37978 ft 476 kts 252°
2026-05-07 17:20 20.76709 111.27361 37984 ft 476 kts 252°
2026-05-07 17:21 20.74448 111.20653 37987 ft 476 kts 252°
2026-05-07 17:21 20.72222 111.14036 37988 ft 477 kts 252°
2026-05-07 17:22 20.69967 111.07340 37988 ft 477 kts 252°
2026-05-07 17:22 20.67726 111.00691 37990 ft 478 kts 252°
2026-05-07 17:23 20.65475 110.94016 37997 ft 478 kts 252°
2026-05-07 17:23 20.63229 110.87364 37997 ft 478 kts 252°
2026-05-07 17:24 20.60984 110.80682 37994 ft 477 kts 252°
2026-05-07 17:24 20.58762 110.74063 37997 ft 477 kts 252°
2026-05-07 17:25 20.56512 110.67367 37993 ft 478 kts 252°
2026-05-07 17:25 20.54266 110.60699 37994 ft 478 kts 252°
2026-05-07 17:26 20.51683 110.54168 37992 ft 480 kts 246°
2026-05-07 17:26 20.48476 110.47909 37989 ft 482 kts 241°
2026-05-07 17:27 20.44672 110.41997 37990 ft 484 kts 235°
2026-05-07 17:27 20.40457 110.36413 37990 ft 484 kts 234°
2026-05-07 17:28 20.36217 110.30833 37989 ft 485 kts 233°
2026-05-07 17:28 20.31957 110.25235 37989 ft 486 kts 233°
2026-05-07 17:29 20.27729 110.19663 37985 ft 486 kts 234°
2026-05-07 17:29 20.23513 110.14031 37982 ft 486 kts 234°
2026-05-07 17:30 20.19299 110.08407 37981 ft 485 kts 234°
2026-05-07 17:30 20.15108 110.02820 37978 ft 486 kts 234°
2026-05-07 17:31 20.10884 109.97197 37979 ft 486 kts 234°
2026-05-07 17:31 20.06678 109.91603 37977 ft 485 kts 234°
2026-05-07 17:32 20.02458 109.85998 37977 ft 485 kts 234°
2026-05-07 17:32 19.98226 109.80377 37976 ft 485 kts 234°
2026-05-07 17:33 19.93995 109.74766 37980 ft 485 kts 234°
2026-05-07 17:33 19.89783 109.69190 37981 ft 485 kts 234°
2026-05-07 17:34 19.85529 109.63598 37983 ft 485 kts 234°
2026-05-07 17:34 19.81303 109.58038 37986 ft 484 kts 234°
2026-05-07 17:35 19.77070 109.52454 37986 ft 484 kts 234°
2026-05-07 17:35 19.72866 109.46904 37984 ft 483 kts 234°
2026-05-07 17:36 19.68661 109.41357 37980 ft 482 kts 234°
2026-05-07 17:36 19.64448 109.35802 37984 ft 483 kts 234°
2026-05-07 17:37 19.60266 109.30273 37985 ft 482 kts 234°
2026-05-07 17:37 19.56071 109.24732 37982 ft 483 kts 234°
2026-05-07 17:38 19.51841 109.19173 37984 ft 483 kts 234°
2026-05-07 17:38 19.47601 109.13666 37989 ft 482 kts 234°
2026-05-07 17:39 19.43337 109.08147 37987 ft 482 kts 234°
2026-05-07 17:39 19.39110 109.02670 37987 ft 482 kts 234°
2026-05-07 17:40 19.34881 108.97192 37992 ft 481 kts 234°
2026-05-07 17:40 19.30642 108.91706 37984 ft 482 kts 234°
2026-05-07 17:41 19.26393 108.86211 37979 ft 483 kts 234°
2026-05-07 17:41 19.22131 108.80711 37977 ft 484 kts 234°
2026-05-07 17:42 19.17850 108.75193 37984 ft 484 kts 234°
2026-05-07 17:42 19.13584 108.69696 37988 ft 483 kts 234°
2026-05-07 17:43 19.09312 108.64195 37993 ft 482 kts 234°
2026-05-07 17:43 19.05043 108.58701 37990 ft 484 kts 234°
2026-05-07 17:44 19.00790 108.53230 37998 ft 485 kts 234°
2026-05-07 17:44 18.96483 108.47695 37995 ft 486 kts 234°
2026-05-07 17:45 18.92200 108.42199 37982 ft 486 kts 234°
2026-05-07 17:45 18.87903 108.36700 37979 ft 485 kts 234°
2026-05-07 17:46 18.83601 108.31215 37980 ft 484 kts 233°
2026-05-07 17:46 18.79341 108.25754 37979 ft 485 kts 234°
2026-05-07 17:47 18.75051 108.20259 37980 ft 485 kts 234°
2026-05-07 17:47 18.70743 108.14752 37977 ft 486 kts 234°
2026-05-07 17:48 18.66448 108.09264 37974 ft 486 kts 233°
2026-05-07 17:48 18.62141 108.03769 37974 ft 486 kts 233°
2026-05-07 17:49 18.57815 107.98255 37976 ft 486 kts 233°
2026-05-07 17:49 18.53505 107.92766 37982 ft 486 kts 233°
2026-05-07 17:50 18.49193 107.87275 37977 ft 487 kts 233°
2026-05-07 17:50 18.44903 107.81818 37976 ft 486 kts 233°
2026-05-07 17:51 18.40565 107.76301 37979 ft 487 kts 233°
2026-05-07 17:51 18.36256 107.70818 37976 ft 486 kts 234°
2026-05-07 17:52 18.32307 107.65121 37977 ft 484 kts 240°
2026-05-07 17:52 18.28678 107.59134 37974 ft 484 kts 241°
2026-05-07 17:53 18.25078 107.53165 37965 ft 485 kts 240°
2026-05-07 17:53 18.21465 107.47189 37962 ft 486 kts 240°
2026-05-07 17:54 18.17842 107.41200 37960 ft 486 kts 240°
2026-05-07 17:54 18.14198 107.35184 37964 ft 486 kts 240°
2026-05-07 17:55 18.10580 107.29196 37958 ft 486 kts 240°
2026-05-07 17:55 18.06938 107.23186 37957 ft 488 kts 240°
2026-05-07 17:56 18.03285 107.17183 37956 ft 489 kts 240°
2026-05-07 17:56 17.99626 107.11181 37957 ft 490 kts 240°
2026-05-07 17:57 17.96580 107.06186 37958 ft 490 kts 240°
2026-05-07 17:57 17.92283 106.99147 37954 ft 490 kts 240°
2026-05-07 17:58 17.88590 106.93117 37951 ft 490 kts 239°
2026-05-07 17:58 17.84892 106.87091 37875 ft 489 kts 240°
2026-05-07 17:59 17.81212 106.81050 37850 ft 490 kts 240°
2026-05-07 17:59 17.77556 106.75034 37852 ft 490 kts 240°
2026-05-07 18:00 17.73895 106.69016 37854 ft 489 kts 240°
2026-05-07 18:00 17.70226 106.62984 37856 ft 489 kts 240°
2026-05-07 18:01 17.66574 106.57010 37854 ft 489 kts 240°
2026-05-07 18:01 17.62888 106.51012 37860 ft 489 kts 239°
2026-05-07 18:02 17.57360 106.42013 37871 ft 489 kts 239°
2026-05-07 18:03 17.53692 106.36042 37889 ft 487 kts 239°
2026-05-07 18:03 17.50038 106.30074 37910 ft 487 kts 239°
2026-05-07 18:04 17.46368 106.24088 37928 ft 487 kts 239°
2026-05-07 18:04 17.42705 106.18131 37941 ft 487 kts 239°
2026-05-07 18:05 17.39056 106.12207 37952 ft 487 kts 239°
2026-05-07 18:05 17.35377 106.06229 37948 ft 487 kts 239°
2026-05-07 18:06 17.31747 106.00232 37936 ft 487 kts 239°
2026-05-07 18:06 17.28132 105.94257 37916 ft 487 kts 240°
2026-05-07 18:07 17.24489 105.88242 37907 ft 488 kts 240°
2026-05-07 18:07 17.20857 105.82256 37897 ft 489 kts 240°
2026-05-07 18:08 17.17215 105.76260 37888 ft 490 kts 240°
2026-05-07 18:08 17.13544 105.70217 37880 ft 490 kts 239°
2026-05-07 18:09 17.09904 105.64234 37877 ft 491 kts 240°
2026-05-07 18:09 17.06224 105.58192 37879 ft 491 kts 240°
2026-05-07 18:10 17.02550 105.52165 37876 ft 493 kts 240°
2026-05-07 18:10 16.98871 105.46130 37880 ft 494 kts 240°
2026-05-07 18:11 16.95179 105.40081 37873 ft 494 kts 240°
2026-05-07 18:11 16.91468 105.34006 37871 ft 494 kts 239°
2026-05-07 18:12 16.87776 105.27965 37873 ft 494 kts 239°
2026-05-07 18:12 16.84052 105.21912 37873 ft 494 kts 239°
2026-05-07 18:13 16.80332 105.15872 37863 ft 495 kts 239°
2026-05-07 18:13 16.76603 105.09805 37861 ft 495 kts 239°
2026-05-07 18:14 16.72865 105.03721 37857 ft 495 kts 239°
2026-05-07 18:14 16.69141 104.97666 37857 ft 496 kts 239°
2026-05-07 18:15 16.65416 104.91615 37856 ft 496 kts 239°
2026-05-07 18:15 16.61697 104.85574 37859 ft 496 kts 239°
2026-05-07 18:16 16.57929 104.79524 37852 ft 496 kts 238°
2026-05-07 18:16 16.53733 104.73818 37850 ft 497 kts 232°
2026-05-07 18:17 16.49112 104.68407 37849 ft 497 kts 230°
2026-05-07 18:17 16.44516 104.63075 37843 ft 497 kts 230°
2026-05-07 18:18 16.39890 104.57700 37836 ft 498 kts 231°
2026-05-07 18:18 16.35265 104.52319 37836 ft 498 kts 231°
2026-05-07 18:19 16.30617 104.46915 37836 ft 498 kts 231°
2026-05-07 18:19 16.26003 104.41564 37835 ft 498 kts 230°
2026-05-07 18:20 16.21339 104.36234 37833 ft 497 kts 230°
2026-05-07 18:20 16.16669 104.30891 37832 ft 498 kts 230°
2026-05-07 18:21 16.12040 104.25585 37832 ft 498 kts 230°
2026-05-07 18:21 16.07358 104.20235 37832 ft 499 kts 230°
2026-05-07 18:22 16.02697 104.14863 37827 ft 499 kts 230°
2026-05-07 18:22 15.98074 104.09457 37824 ft 498 kts 230°
2026-05-07 18:23 15.93489 104.04102 37821 ft 498 kts 230°
2026-05-07 18:23 15.88865 103.98718 37821 ft 497 kts 230°
2026-05-07 18:24 15.84237 103.93368 37815 ft 498 kts 230°
2026-05-07 18:24 15.79596 103.87994 37829 ft 498 kts 231°
2026-05-07 18:25 15.74964 103.82616 37836 ft 498 kts 231°
2026-05-07 18:25 15.70358 103.77269 37842 ft 498 kts 230°
2026-05-07 18:26 15.65693 103.71854 37844 ft 498 kts 230°
2026-05-07 18:26 15.61064 103.66488 37841 ft 497 kts 230°
2026-05-07 18:27 15.56456 103.61150 37838 ft 497 kts 230°
2026-05-07 18:27 15.51832 103.55795 37839 ft 497 kts 230°
2026-05-07 18:28 15.47192 103.50424 37842 ft 497 kts 230°
2026-05-07 18:28 15.42584 103.45096 37836 ft 496 kts 230°
2026-05-07 18:29 15.37967 103.39760 37829 ft 497 kts 230°
2026-05-07 18:29 15.33358 103.34438 37830 ft 496 kts 230°
2026-05-07 18:30 15.28746 103.29085 37836 ft 495 kts 230°
2026-05-07 18:30 15.24163 103.23786 37839 ft 495 kts 230°
2026-05-07 18:31 15.19550 103.18469 37845 ft 494 kts 230°
2026-05-07 18:31 15.14954 103.13177 37844 ft 494 kts 230°
2026-05-07 18:32 15.10343 103.07887 37841 ft 495 kts 229°
2026-05-07 18:32 15.05424 103.02952 37846 ft 496 kts 223°
2026-05-07 18:33 14.99975 102.98546 37843 ft 497 kts 216°
2026-05-07 18:33 14.94215 102.94511 37837 ft 497 kts 219°
2026-05-07 18:34 14.89148 102.89702 37834 ft 494 kts 231°
2026-05-07 18:34 14.85254 102.83907 37623 ft 492 kts 244°
2026-05-07 18:34 14.83818 102.80716 37338 ft 488 kts 251°
2026-05-07 18:35 14.82721 102.77462 37056 ft 485 kts 253°
2026-05-07 18:35 14.81692 102.74114 36751 ft 483 kts 255°
2026-05-07 18:35 14.80697 102.70813 36458 ft 483 kts 254°
2026-05-07 18:35 14.79704 102.67522 36164 ft 483 kts 255°
2026-05-07 18:36 14.78705 102.64237 35869 ft 485 kts 254°
2026-05-07 18:36 14.77682 102.60881 35557 ft 486 kts 254°
2026-05-07 18:36 14.76660 102.57544 35108 ft 487 kts 254°
2026-05-07 18:36 14.75638 102.54215 34531 ft 489 kts 254°
2026-05-07 18:37 14.74610 102.50873 33894 ft 492 kts 254°
2026-05-07 18:37 14.73568 102.47493 33184 ft 493 kts 254°
2026-05-07 18:37 14.72531 102.44128 32458 ft 493 kts 254°
2026-05-07 18:37 14.71500 102.40778 31769 ft 494 kts 254°
2026-05-07 18:38 14.70456 102.37383 31046 ft 495 kts 254°
2026-05-07 18:38 14.69412 102.33991 30293 ft 497 kts 253°
2026-05-07 18:38 14.68374 102.30612 29536 ft 498 kts 253°
2026-05-07 18:38 14.67326 102.27203 28896 ft 496 kts 252°
2026-05-07 18:39 14.66281 102.23812 28350 ft 493 kts 252°
2026-05-07 18:39 14.65244 102.20459 27859 ft 490 kts 252°
2026-05-07 18:39 14.64217 102.17145 27292 ft 488 kts 252°
2026-05-07 18:39 14.63182 102.13810 26793 ft 483 kts 252°
2026-05-07 18:40 14.62167 102.10537 26331 ft 479 kts 252°
2026-05-07 18:40 14.61163 102.07299 25861 ft 475 kts 252°
2026-05-07 18:40 14.60159 102.04062 25389 ft 471 kts 252°
2026-05-07 18:40 14.59167 102.00865 24937 ft 467 kts 251°
2026-05-07 18:41 14.58181 101.97687 24482 ft 463 kts 251°
2026-05-07 18:41 14.57211 101.94565 24039 ft 459 kts 251°
2026-05-07 18:41 14.56173 101.91468 23593 ft 455 kts 248°
2026-05-07 18:41 14.55004 101.88454 23143 ft 451 kts 246°
2026-05-07 18:42 14.53821 101.85496 22703 ft 447 kts 246°
2026-05-07 18:42 14.52626 101.82519 22253 ft 444 kts 246°
2026-05-07 18:42 14.51460 101.79621 21826 ft 440 kts 246°
2026-05-07 18:42 14.50282 101.76691 21381 ft 437 kts 246°
2026-05-07 18:43 14.49135 101.73835 20936 ft 435 kts 246°
2026-05-07 18:43 14.47977 101.70947 20490 ft 432 kts 246°
2026-05-07 18:43 14.46839 101.68111 20044 ft 429 kts 246°
2026-05-07 18:43 14.45697 101.65266 19598 ft 427 kts 246°
2026-05-07 18:44 14.44577 101.62476 19174 ft 424 kts 246°
2026-05-07 18:44 14.43452 101.59670 18772 ft 420 kts 246°
2026-05-07 18:44 14.42341 101.56901 18350 ft 418 kts 246°
2026-05-07 18:44 14.41231 101.54138 17916 ft 415 kts 246°
2026-05-07 18:45 14.40141 101.51425 17488 ft 413 kts 246°
2026-05-07 18:45 14.39036 101.48677 17048 ft 411 kts 246°
2026-05-07 18:45 14.37945 101.45964 16611 ft 409 kts 247°
2026-05-07 18:45 14.36865 101.43279 16184 ft 407 kts 247°
2026-05-07 18:46 14.35779 101.40579 15818 ft 402 kts 247°
2026-05-07 18:46 14.34725 101.37957 15688 ft 394 kts 247°
2026-05-07 18:46 14.33684 101.35371 15540 ft 383 kts 247°
2026-05-07 18:46 14.32688 101.32890 15418 ft 372 kts 246°
2026-05-07 18:47 14.31679 101.30452 15236 ft 370 kts 242°
2026-05-07 18:47 14.30280 101.28236 14925 ft 364 kts 229°
2026-05-07 18:47 14.28498 101.26410 14529 ft 362 kts 219°
2026-05-07 18:47 14.26578 101.24767 14141 ft 359 kts 217°
2026-05-07 18:48 14.24624 101.23138 13778 ft 357 kts 217°
2026-05-07 18:48 14.22694 101.21523 13417 ft 356 kts 217°
2026-05-07 18:48 14.20796 101.19927 13065 ft 354 kts 218°
2026-05-07 18:48 14.18889 101.18314 12710 ft 353 kts 218°
2026-05-07 18:49 14.17008 101.16717 12364 ft 351 kts 218°
2026-05-07 18:49 14.15114 101.15107 12015 ft 349 kts 218°
2026-05-07 18:49 14.13264 101.13532 11722 ft 345 kts 218°
2026-05-07 18:49 14.11421 101.11963 11530 ft 336 kts 218°
2026-05-07 18:50 14.09639 101.10446 11448 ft 324 kts 218°
2026-05-07 18:50 14.07940 101.09000 11382 ft 313 kts 218°
2026-05-07 18:50 14.06224 101.07663 11165 ft 310 kts 208°
2026-05-07 18:50 14.04272 101.06740 10925 ft 304 kts 195°
2026-05-07 18:51 14.02250 101.06149 10651 ft 302 kts 192°
2026-05-07 18:51 14.00216 101.05615 10383 ft 301 kts 192°
2026-05-07 18:51 13.98189 101.05081 10142 ft 300 kts 193°
2026-05-07 18:51 13.96149 101.04533 9918 ft 299 kts 193°
2026-05-07 18:52 13.94143 101.03988 9706 ft 299 kts 193°
2026-05-07 18:52 13.92125 101.03435 9495 ft 297 kts 193°
2026-05-07 18:52 13.90127 101.02886 9188 ft 296 kts 193°
2026-05-07 18:52 13.88143 101.02344 8807 ft 296 kts 193°
2026-05-07 18:53 13.86160 101.01803 8522 ft 294 kts 193°
2026-05-07 18:53 13.84159 101.01251 8212 ft 293 kts 195°
2026-05-07 18:53 13.82376 101.00266 7893 ft 294 kts 225°
2026-05-07 18:53 13.81322 100.98478 7575 ft 294 kts 255°
2026-05-07 18:54 13.81237 100.96427 7285 ft 291 kts 283°
2026-05-07 18:54 13.81781 100.94425 7036 ft 290 kts 287°
2026-05-07 18:54 13.82339 100.92481 6987 ft 280 kts 287°
2026-05-07 18:54 13.82959 100.90634 6901 ft 262 kts 303°
2026-05-07 18:55 13.84214 100.89436 6839 ft 246 kts 340°
2026-05-07 18:55 13.85881 100.89191 6590 ft 242 kts 11°
2026-05-07 18:55 13.87505 100.89649 6353 ft 240 kts 19°
2026-05-07 18:55 13.89105 100.90145 6130 ft 241 kts 18°
2026-05-07 18:56 13.90731 100.90624 5899 ft 241 kts 17°
2026-05-07 18:56 13.92352 100.91084 5674 ft 240 kts 17°
2026-05-07 18:56 13.93975 100.91537 5443 ft 240 kts 16°
2026-05-07 18:56 13.95578 100.91981 5220 ft 241 kts 16°
2026-05-07 18:57 13.97212 100.92408 4983 ft 241 kts
2026-05-07 18:57 13.98874 100.92178 4723 ft 242 kts 332°
2026-05-07 18:57 14.00075 100.91019 4478 ft 241 kts 298°
2026-05-07 18:57 14.00576 100.89394 4270 ft 239 kts 282°
2026-05-07 18:58 14.00929 100.87705 4055 ft 241 kts 282°
2026-05-07 18:58 14.01059 100.86002 3806 ft 240 kts 255°
2026-05-07 18:58 14.00244 100.84553 3568 ft 237 kts 220°
2026-05-07 18:58 13.98785 100.83806 3335 ft 236 kts 194°
2026-05-07 18:59 13.97183 100.83411 3110 ft 237 kts 194°
2026-05-07 18:59 13.95561 100.83022 2893 ft 236 kts 194°
2026-05-07 18:59 13.93985 100.82633 2720 ft 233 kts 194°
2026-05-07 18:59 13.92399 100.82229 2542 ft 231 kts 194°
2026-05-07 19:00 13.90842 100.81823 2345 ft 230 kts 195°
2026-05-07 19:00 13.89298 100.81415 2165 ft 227 kts 195°
2026-05-07 19:00 13.87800 100.81018 2090 ft 218 kts 195°
2026-05-07 19:00 13.86346 100.80632 2025 ft 209 kts 195°
2026-05-07 19:01 13.84974 100.80268 1994 ft 198 kts 195°
2026-05-07 19:01 13.83660 100.79921 1972 ft 186 kts 195°
2026-05-07 19:01 13.82449 100.79600 1983 ft 171 kts 195°
2026-05-07 19:01 13.81323 100.79304 1997 ft 165 kts 195°
2026-05-07 19:02 13.80212 100.79011 1989 ft 164 kts 195°
2026-05-07 19:02 13.79095 100.78715 1920 ft 165 kts 195°
2026-05-07 19:02 13.78006 100.78429 1703 ft 158 kts 195°
2026-05-07 19:02 13.76973 100.78156 1517 ft 151 kts 194°
2026-05-07 19:03 13.75949 100.77887 1334 ft 150 kts 194°
2026-05-07 19:03 13.74947 100.77623 1150 ft 147 kts 194°
2026-05-07 19:03 13.73951 100.77361 967 ft 147 kts 194°
2026-05-07 19:03 13.72945 100.77097 779 ft 148 kts 194°
2026-05-07 19:04 13.71947 100.76833 586 ft 148 kts 194°
2026-05-07 19:04 13.70946 100.76570 394 ft 148 kts 194°
2026-05-07 19:04 13.69939 100.76305 206 ft 149 kts 194°
2026-05-07 19:04 13.68932 100.76036 21 ft 148 kts 194°
2026-05-07 19:05 13.68095 100.75822 16 ft 95 kts 194°
2026-05-07 19:05 13.67663 100.75700 16 ft 27 kts 204°
2026-05-07 19:05 13.67506 100.75595 16 ft 26 kts 222°
2026-05-07 19:05 13.67447 100.75494 16 ft 10 kts 294°
2026-05-07 19:06 13.67507 100.75473 16 ft 2 kts 17°